Weather History for KBMI - August, 2012

Change the Weather History Date:

Thursday, August 9, 2012

  Actual Average Record
Temperature  
Mean Temperature 72 °F -  
Max Temperature 83 °F 89 °F 93 °F (2001)
Min Temperature 62 °F 68 °F 57 °F (1999)
Cooling Degree Days 7    
Growing Degree Days 22 (Base 50)    
Moisture  
Dew Point 66 °F    
Average Humidity 91    
Maximum Humidity 100    
Minimum Humidity 51    
Precipitation  
Precipitation 0.29 in - - ()
Sea Level Pressure  
Sea Level Pressure 29.87 in    
Wind  
Wind Speed 7 mph (NE)    
Max Wind Speed 22 mph    
Max Gust Speed -    
Visibility 6 miles    
Events Rain , Thunderstorm    
Averages and records for this station are not official NWS values.
T = Trace of Precipitation, MM = Missing Value Source: NWS Daily Summary

Daily Weather History Graph

Daily Weather History Graph

Search for Another Location

Airport or City:

Trip Planner

Search our weather history database for the weather conditions in past years. The results will help you decide how hot, cold, wet, or windy it might be!

Date:

Astronomy

Aug. 09, 2012 Rise Set
Actual Time 6:01 AM CDT 8:00 PM CDT
Civil Twilight 5:31 AM CDT 8:30 PM CDT
Nautical Twilight 4:54 AM CDT 9:06 PM CDT
Astronomical Twilight 4:15 AM CDT 9:45 PM CDT
Moon 11:50 PM CDT (8/9) 1:44 PM CDT (8/9)
Length of Visible Light 14h 58m
Length of Day
13h 59m
Waning Gibbous, 51% of the Moon is Illuminated
Aug 9
Waning Gibbous
Aug 9
Last Quarter
Aug 17
New
Aug 24
First Quarter
Aug 31
Full

Hourly Weather History & Observations

Time (CDT) Temp. Heat Index Dew Point Humidity Pressure Visibility Wind Dir Wind Speed Gust Speed Precip Events Conditions
12:56 AM 64.9 °F - 64.9 °F 100% 29.93 in 3.0 mi South 4.6 mph - N/A   Clear
1:28 AM 66.2 °F - 66.2 °F 100% 29.97 in 2.5 mi South 5.8 mph - 0.00 in Rain Light Rain
1:39 AM 66.2 °F - 66.2 °F 100% 29.97 in 4.0 mi South 6.9 mph - 0.00 in Rain Light Rain
1:56 AM 66.9 °F - 66.9 °F 100% 29.92 in 5.0 mi SW 4.6 mph - 0.00 in   Partly Cloudy
2:56 AM 65.8 °F - 65.8 °F 100% 29.92 in 4.0 mi SE 5.8 mph - N/A   Clear
3:05 AM 66.2 °F - 66.2 °F 100% 29.95 in 2.0 mi ESE 4.6 mph - N/A   Scattered Clouds
3:18 AM 64.4 °F - 64.4 °F 100% 29.95 in 1.8 mi East 3.5 mph - N/A   Mostly Cloudy
3:56 AM 63.9 °F - 63.9 °F 100% 29.89 in 1.5 mi ENE 6.9 mph - N/A   Clear
4:26 AM 64.4 °F - 64.4 °F 100% 29.91 in 2.0 mi ENE 4.6 mph - N/A   Clear
4:45 AM 64.4 °F - 64.4 °F 100% 29.90 in 1.8 mi East 3.5 mph - N/A   Mostly Cloudy
4:56 AM 63.9 °F - 63.9 °F 100% 29.87 in 1.5 mi ESE 6.9 mph - N/A   Mostly Cloudy
5:37 AM 64.4 °F - 64.4 °F 100% 29.89 in 2.5 mi NE 4.6 mph - N/A   Clear
5:56 AM 63.9 °F - 63.9 °F 100% 29.87 in 1.0 mi NNE 5.8 mph - N/A   Clear
6:56 AM 64.9 °F - 64.9 °F 100% 29.87 in 1.0 mi East 5.8 mph - N/A   Mostly Cloudy
7:17 AM 64.4 °F - 64.4 °F 100% 29.90 in 1.5 mi SE 5.8 mph - N/A   Mostly Cloudy
7:28 AM 64.4 °F - 64.4 °F 100% 29.92 in 3.0 mi SSE 6.9 mph - N/A   Mostly Cloudy
7:36 AM 64.4 °F - 64.4 °F 100% 29.92 in 2.5 mi South 8.1 mph - N/A   Mostly Cloudy
7:56 AM 65.8 °F - 65.8 °F 100% 29.90 in 6.0 mi South 9.2 mph - N/A   Mostly Cloudy
8:56 AM 68.0 °F - 68.0 °F 100% 29.90 in 10.0 mi SSW 9.2 mph - N/A   Clear
9:56 AM 72.9 °F - 65.8 °F 79% 29.89 in 10.0 mi SW 11.5 mph - N/A   Partly Cloudy
10:56 AM 75.9 °F - 65.8 °F 71% 29.88 in 10.0 mi SSW 10.4 mph - N/A   Mostly Cloudy
11:56 AM 77.9 °F - 65.8 °F 66% 29.87 in 10.0 mi SW 8.1 mph - N/A   Partly Cloudy
12:56 PM 81.9 °F 83.5 °F 64.9 °F 56% 29.85 in 10.0 mi West 9.2 mph - N/A   Clear
1:56 PM 82.9 °F 84.6 °F 64.9 °F 54% 29.82 in 10.0 mi Variable 3.5 mph - N/A   Clear
2:56 PM 82.9 °F 84.0 °F 63.0 °F 51% 29.80 in 10.0 mi West 6.9 mph - N/A   Clear
3:56 PM 81.0 °F 82.2 °F 63.0 °F 54% 29.78 in 10.0 mi NW 10.4 mph - N/A   Scattered Clouds
4:18 PM 77.0 °F - 71.6 °F 83% 29.81 in 9.0 mi North 16.1 mph - 0.00 in Rain , Thunderstorm Light Thunderstorms and Rain
4:21 PM 75.2 °F - 71.6 °F 89% 29.81 in 4.0 mi North 15.0 mph - 0.01 in Rain , Thunderstorm Thunderstorms and Rain
4:32 PM 71.6 °F - 71.6 °F 100% 29.84 in 1.0 mi NW 19.6 mph - 0.11 in Rain , Thunderstorm Heavy Thunderstorms and Rain
4:35 PM 71.6 °F - 71.6 °F 100% 29.84 in 1.0 mi WNW 16.1 mph - 0.16 in Rain , Thunderstorm Heavy Thunderstorms and Rain
4:56 PM 72.0 °F - 72.0 °F 100% 29.80 in 5.0 mi NE 4.6 mph - 0.29 in Rain Light Rain
5:11 PM 73.4 °F - 73.4 °F 100% 29.82 in 10.0 mi North 4.6 mph - 0.00 in   Mostly Cloudy
5:56 PM 77.0 °F - 70.9 °F 81% 29.79 in 10.0 mi North 6.9 mph - 0.00 in   Partly Cloudy
6:56 PM 74.8 °F - 65.8 °F 73% 29.80 in 10.0 mi North 21.9 mph - N/A   Scattered Clouds
7:56 PM 70.0 °F - 68.0 °F 93% 29.83 in 10.0 mi North 16.1 mph - 0.00 in   Scattered Clouds
8:56 PM 66.9 °F - 64.9 °F 93% 29.85 in 10.0 mi NNE 12.7 mph - N/A   Clear
9:34 PM 66.2 °F - 64.4 °F 94% 29.88 in 10.0 mi NNE 10.4 mph - N/A   Mostly Cloudy
9:56 PM 65.8 °F - 63.9 °F 93% 29.85 in 10.0 mi NNE 8.1 mph - N/A   Mostly Cloudy
10:11 PM 64.4 °F - 64.4 °F 100% 29.88 in 10.0 mi North 8.1 mph - N/A   Scattered Clouds
10:56 PM 64.9 °F - 63.9 °F 96% 29.85 in 10.0 mi North 12.7 mph - N/A   Mostly Cloudy
11:26 PM 62.6 °F - 62.6 °F 100% 29.89 in 10.0 mi NNW 13.8 mph - N/A   Overcast
11:56 PM 63.0 °F - 63.0 °F 100% 29.85 in 10.0 mi NNE 13.8 mph - N/A   Overcast